TimeEDT,TemperatureF,Dew PointF,Humidity,Sea Level PressureIn,VisibilityMPH,Wind Direction,Wind SpeedMPH,Gust SpeedMPH,PrecipitationIn,Events,Conditions,WindDirDegrees,DateUTC
12:54 AM,75.9,66.9,74,30.19,10.0,WSW,4.6,-,N/A,,Clear,240,2013-07-17 04:54:00
1:54 AM,75.0,68.0,79,30.18,10.0,West,8.1,-,N/A,,Clear,270,2013-07-17 05:54:00
2:54 AM,73.0,66.0,79,30.17,10.0,WNW,8.1,-,N/A,,Clear,300,2013-07-17 06:54:00
3:54 AM,73.9,64.9,73,30.17,10.0,NW,5.8,-,N/A,,Clear,310,2013-07-17 07:54:00
4:54 AM,73.0,64.9,76,30.18,10.0,NW,5.8,-,N/A,,Clear,310,2013-07-17 08:54:00
5:54 AM,73.9,64.0,71,30.19,10.0,WNW,4.6,-,N/A,,Clear,300,2013-07-17 09:54:00
6:54 AM,75.9,66.0,71,30.20,10.0,NW,4.6,-,N/A,,Clear,320,2013-07-17 10:54:00
7:54 AM,81.0,66.9,62,30.21,10.0,Calm,Calm,-,N/A,,Clear,0,2013-07-17 11:54:00
8:54 AM,82.0,68.0,62,30.21,10.0,Calm,Calm,-,N/A,,Clear,0,2013-07-17 12:54:00
9:54 AM,84.0,64.9,53,30.20,10.0,WNW,5.8,-,N/A,,Clear,290,2013-07-17 13:54:00
10:54 AM,84.9,63.0,48,30.19,10.0,NW,8.1,-,N/A,,Clear,310,2013-07-17 14:54:00
11:54 AM,87.1,64.9,48,30.18,10.0,Variable,5.8,-,N/A,,Clear,0,2013-07-17 15:54:00
12:54 PM,88.0,64.0,45,30.17,10.0,West,6.9,-,N/A,,Clear,260,2013-07-17 16:54:00
1:54 PM,89.1,63.0,42,30.16,10.0,WNW,6.9,-,N/A,,Clear,290,2013-07-17 17:54:00
2:54 PM,88.0,66.9,49,30.14,10.0,WSW,8.1,-,N/A,,Mostly Cloudy,250,2013-07-17 18:54:00
3:54 PM,89.1,64.0,43,30.11,10.0,WNW,8.1,-,N/A,,Clear,290,2013-07-17 19:54:00
4:54 PM,88.0,68.0,51,30.09,10.0,WSW,9.2,-,N/A,,Clear,240,2013-07-17 20:54:00
5:54 PM,87.1,69.1,55,30.07,10.0,WSW,12.7,-,N/A,,Clear,240,2013-07-17 21:54:00
6:54 PM,86.0,71.1,61,30.05,10.0,SW,10.4,-,N/A,,Clear,220,2013-07-17 22:54:00
7:54 PM,82.9,70.0,65,30.07,10.0,WSW,8.1,-,N/A,,Clear,240,2013-07-17 23:54:00
8:54 PM,80.1,72.0,76,30.07,10.0,SW,6.9,-,N/A,,Clear,230,2013-07-18 00:54:00
9:54 PM,79.0,73.0,82,30.07,10.0,SW,10.4,-,N/A,,Clear,230,2013-07-18 01:54:00
10:54 PM,77.0,72.0,84,30.06,10.0,WSW,10.4,-,N/A,,Clear,240,2013-07-18 02:54:00
11:54 PM,75.9,71.1,85,30.05,10.0,WSW,11.5,-,N/A,,Clear,240,2013-07-18 03:54:00